Tracking 28793 objects as of 20-Apr-2024
HD Live streaming from Space Station
objects crossing your sky now

SCOUT B-1 DEB

Track SCOUT B-1 DEB now!
10-day predictions


NORAD ID: 6284
Int'l Code: 1972-069D
Perigee: 645.3 km
Apogee: 708.6 km
Inclination: 90.5 °
Period: 98.1 minutes
Semi major axis: 7047 km
RCS: 0.034 m2 (small)
Launch date: September 2, 1972
Source: United States (US)
Launch site: AIR FORCE WESTERN TEST RANGE (AFWTR)

Note: This is SATELLITE DEBRIS
Your satellite tracking list
Your tracking list is empty




NASA's NSSDC Master Catalog

Two Line Element Set (TLE):
1 06284U 72069D   24110.98811177  .00009148  00000-0  15961-2 0  9990
2 06284  90.4873 303.1233 0044920  87.4931 273.1427 14.67267870632453
Source of the keplerian elements: AFSPC